Back to catalog

ETRSS-1

AliveScienceSSO
NORAD 44880·PAYLOAD·🇪🇹 Ethiopia
This satellite name has not been confirmed by official sources yet.

Launched Dec 20, 2019 from Taiyuan Satellite Launch Center

Loading…

Next Passes (next 24 hours)

TLE

FreshSource: Space-Track

Epoch: Sep 14, 2026, 14:02 UTC

1 44880U 19093B   26257.58537554  .00002491  00000-0  22542-3 0  9994
2 44880  97.7786 341.3222 0012774 112.9908 247.2662 14.96274499365422

Track ETRSS-1 in real time with AllMySat

Download on the App Store